Погода Малые Дербеты

Хотите узнать прогноз погоды Малые Дербеты? Тогда Вам сюда: Погода Малые Дербеты

Поиск расширенной информации на нашем сайте:

Полезная информация:

Новости сайта



02.01.2020
Опубликован Долгосрочный прогноз погоды по городам России и ближнего зарубежья на январь 2020 года.
Карты: Прогноз на январь и февраль 2020 года, Сравнение прогнозируемой аномалии приземной температуры воздуха на январь 2020 года по разным моделям.




Погода Малые Дербеты - сегодня

Время (UTC), дата Ветер
(°,м/с) 
Видим.   Явления Облачность Т
(°С)
Тd
(°С)
f(%) Тe
(°С)
Pmin
(гПа)
dP
(гПа)
Po
(мм)
O2
(г/м3)
Тmin Tmax R s Состояние
почвы
15 18.10.20 150 (ЮВ) 20000 м  пыльный позёмок  10/0 верхняя 
[Cu med, cong|Ci fib]
+25.7 +11.6 41 +29  1006.5  -2.3  754  276    +27.1       
18 18.10.20 140 (ЮВ) 20000 м    10/0 верхняя 
[Cs]
+16.8 +5.7 48 +18  1014.5  0.5  760  288           
21 18.10.20 180 (Ю) 20000 м    10/0 верхняя 
[Cs]
+13.5 +4.6 55 +15  1014.7  0.2  760  291           
00 19.10.20 270 (З) 20000 м  {ливн. осадки}  6/0 верхняя 
[Cs]
+16 +13.5 85 +23  1015.7  761  287           
03 19.10.20 270 (З) 20000 м    9/0 средняя 
[Ac As]
+14.5 +12.3 87 +20  1016.4  0.7  761  289  +13.4    0.3     
06 19.10.20 340 (С) 20000 м    9/0 средняя 
[Ac As]
+14.4 +9.6 73 +15  1017.6  1.2  762  290           
09 19.10.20 340 (С) 10 км  слаб. ливневой дождь  10/3 300 м кучево-дожд., средняя 
[Cb cap|Ac trans]
+13.4 +9.1 75 +13  1017.8  0.2  763  291           
12 19.10.20 020 (С) 20000 м  {ливн. осадки}  10/0 средняя 
[Ac und]
+15.7 +7.4 58 +16  1017.2  -0.6  762  289           
15 19.10.20 340 (С) 20000 м    9/9 500 м 
[Sc]
+14.1 +8.3 68 +15  1016.9  -0.3  762  291    +16  0.0     
18 19.10.20 340 (С) 4000 м  слаб. ливневой дождь  10/10 600 м кучево-дожд. 
[Cb cap|Ac As]
+12.3 +9.1 81 +13  1016.9  762  292           
21 19.10.20 340 (С) 4000 м  слаб. ливневой дождь  10/10 480 м кучево-дожд. 
[Cb cap]
+9.4 +7.1 86 +9  1019  2.1  763  296           
00 20.10.20 360 (С) 20000 м  {ливн. осадки}  ясно 
+8.3 +6.3 87 +9  1019.8  0.8  764  298           
03 20.10.20 270 (З) 20000 м    ясно 
+7.1 +5.1 87 +8  1021.7  1.9  765  300  +7.1       
06 20.10.20 290 (З) 20000 м    ясно 
+10.4 +8.1 86 +10  1022.5  0.8  766  296  +5.5         
09 20.10.20 290 (З) 20000 м    8/3 600 м средняя 
[Cu med, cong|Ac und]
+14.8 +4 48 +15  1022.7  0.2  766  292           
12 20.10.20 270 (З) 20000 м    3/3 600 м 
[Cu med, cong]
+14.4 +1.2 41 +14  1022  -0.7  766  293           
15 20.10.20 250 (З) 20000 м    ясно 
+9 +4.7 74 +9  1022.6  0.5  766  298    +14.4       
18 20.10.20 240 (ЮЗ) 20000 м    ясно 
+6.5 +3 78 +6  1023.2  0.6  767  301           
21 20.10.20 250 (З) 20000 м    ясно 
+5.3 +1.4 76 +4  1023.7  0.5  767  303           
00 21.10.20 250 (З) 20000 м    4/0 верхняя 
[Ci fib]
+4.9 +0.9 75 +5  1024.3  0.6  767  304           
03 21.10.20 260 (З) 20000 м    ясно 
+3.1 -0.3 78 +2  1025.7  1.4  768  306  +3         
06 21.10.20 250 (З) 20000 м    ясно 
+7.1 +1.1 66 +6  1027.3  1.4  770  302  +2.7         
09 21.10.20 250 (З) 5-10  20000 м  пыльный позёмок  4/4 600 м 
[Cu med, cong]
+11.6 +0.9 48 +11  1027.1  -0.2  770  297           
12 21.10.20 260 (З) 4{11}  20000 м    6/3 600 м верхняя 
[Cu med, cong|Ci fib]
+10.9 -1.9 41 +10  1026.4  -0.7  769  298           
15 21.10.20 240 (ЮЗ) 20000 м    10/0 верхняя 
[Cs]
+7.1 +0.4 62 +8  1026.9  0.5  769  302    +11.7       
Время (UTC), дата Ветер
(°,м/с) 
Видим.   Явления Облачность Т
(°С)
Тd
(°С)
f(%) Тe
(°С)
Pmin
(гПа)
dP
(гПа)
Po
(мм)
O2
(г/м3)
Тmin Tmax R s Состояние
почвы

Для получения пояснительной информации подведите курсор к названию столбца.

ПОГОДА Малые Дербеты - архив

Всё, что Вы хотите узнать о погоде Малые Дербеты - удобно и подробно!

Выберите нужную дату (начиная с 1 января 2019* года) и нажмите кнопку "Найти".
Будут отображены архивные сводки погоды по пункту Малые Дербеты, начиная с указанной даты.


Отображать данные в формате CSV (для использования в таблицах Excel)


Внимание! Наш архив погоды предназначен исключительно для личного некоммерческого использования в познавательных целях. Если Вам необходимы официальные справки о состоянии погоды (для производственных, юридических, коммерческих и т.п. целей), обращайтесь в органы Росгидромета.

*Примечание: данная дата относится к архиву по метеостанциям СССР (Россия, СНГ, Балтия).
Архив по метеостанциям Зарубежной Европы и Азии (кроме Китая) хранится 10 дней, по другим регионам земного шара (Китай, Африка, Америка, Австралия, Океания) - 1 день.

Малые Дербеты - район местоположения метеостанции


Название, широта, долгота, высота метеостанции:
Малые Дербеты 47.9°ш. 44.7°д. 9 м над ур. моря [Российская Федерация]

Дополнительная информация

В oтличие oт бoльшинства пoгoдных сайтoв мы публикуем пoдрoбную метеoинфoрмацию в детальнoм прoфессиoнальнoм фoрмате.

Характеристики температуры и влажнoсти вoздуха измеряются на высoте 2 м в тени вдали oт зданий и деревьев.
Скoрoсть ветра измеряется на высoте 10 м (на урoвне рoста челoвека скoрoсть ветра ниже в 1.5-2 раза). Если метеoстанция нахoдится в гoрoде или в лесу, тo скoрoсть ветра занижена на 2-4 м/с пo сравнению с oткрытым местoм. Скoрoсть ветра над акватoриями крупных рек и oзёр, а также на вершинах хoлмoв на 2-5 м/с выше, чем в oбычных услoвиях.
Атмoсфернoе давление в разных тoчках местнoсти мoжет значительнo oтличаться oт давления на метеoстанции, в зависимoсти oт услoвий рельефа (при пoдъёме на 10 м давление пoнижается примернo на 1 мм рт.ст.).